METEOR-M2 2

Last updated on Oct. 27, 2021, 12:02 a.m. UTC

1 44387U 19038A   21299.47353847 -.00000026  00000-0  77070-5 0  9996
2 44387  98.6871 257.5748 0000584 165.1452 194.9743 14.23692681120110
UTC
Height (km)
Latitude
Longitude
Inclination
Orbital Period
UTC large
Height (km)
Speed (km/s)
/
Latitude / Longitude
Inclination (degrees)
Orbital Period (minutes)
Azimuth
Elevation
Range (km)
Doppler Factor
iOS Compass Heading
iOS Angle